Regional Weather Roundup
Issued by NWS

Current Version | Previous Version | Text Only | Print | Product List | Glossary On
Versions: 1 2 3 4 5 6 7 8 9 10 11 12 13 14 15 16 17 18 19 20 21 22 23 24 25 26 27 28 29 30 31 32 33 34 35 36 37 38 39 40 41 42 43 44 45 46 47 48 49 50
000
ASUS44 KFWD 171815
RWRTX
NORTH TEXAS HOURLY WEATHER ROUNDUP
NATIONAL WEATHER SERVICE FORT WORTH TX
100 PM CDT THU APR 17 2014

NOTE: "FAIR" INDICATES FEW OR NO CLOUDS BELOW 12,000 FEET WITH NO
SIGNIFICANT WEATHER AND/OR OBSTRUCTIONS TO VISIBILITY.

TXZ118-119-171900-
DALLAS/FORT WORTH METROPLEX

CITY           SKY/WX    TMP DP  RH WIND       PRES   REMARKS
DFW AIRPORT    LGT RAIN  62  53  72 SE15      30.15F
6HR MIN TEMP:  50; 6HR MAX TEMP:  62; 6HR PCP: TRACE;

DALLAS LOVE    CLOUDY    63  51  65 SE8       30.16S
6HR MIN TEMP:  51; 6HR MAX TEMP:  63;

FTW MEACHAM    CLOUDY    58  54  86 E7        30.15S FOG
6HR MIN TEMP:  51; 6HR MAX TEMP:  61;

DAL-EXECUTIVE  CLOUDY    62  53  72 SE7       30.15S
6HR MIN TEMP:  49; 6HR MAX TEMP:  63; 6HR PCP: TRACE;

FTW-ALLIANCE   CLOUDY    57  54  89 SE8       30.15S FOG
6HR MIN TEMP:  48; 6HR MAX TEMP:  63; 6HR PCP: TRACE;

FTW-NAS-JRB    CLOUDY    61  52  72 E9        30.19F
6HR MIN TEMP:  54; 6HR MAX TEMP:  63;

FTW-SPINKS     CLOUDY    61  55  82 SE12      30.17S FOG
ARLINGTON      LGT RAIN  57  55  94 E5        30.15F FOG
6HR MIN TEMP:  51; 6HR MAX TEMP:  60; 6HR PCP: TRACE;

ADDISON        CLOUDY    63  52  67 SE8       30.16F
MESQUITE         N/A     63  52  67 E7        30.16F
LANCASTER      CLOUDY    62  51  67 SE8       30.17F
6HR MIN TEMP:  48; 6HR MAX TEMP:  62;

$$

TXZ091>094-102>105-117-120-121-131>134-171900-
NORTH CENTRAL TEXAS

CITY           SKY/WX    TMP DP  RH WIND       PRES   REMARKS
SHRMAN/DENISON CLOUDY    62  49  63 E6        30.19S
6HR MIN TEMP:  45; 6HR MAX TEMP:  62;

GAINESVILLE    CLOUDY    59  50  73 E7        30.19R
6HR MIN TEMP:  44; 6HR MAX TEMP:  60;

BOWIE          CLOUDY    62  53  71 E8        30.15S
6HR MIN TEMP:  48; 6HR MAX TEMP:  63;

BRIDGEPORT     CLOUDY    60  51  72 SE8       30.17R
6HR MIN TEMP:  52; 6HR MAX TEMP:  60;

DECATUR        PTSUNNY   60  51  72 E10       30.15F
6HR MIN TEMP:  48; 6HR MAX TEMP:  60;

DENTON         CLOUDY    62  51  67 SE9       30.16S
6HR MIN TEMP:  50; 6HR MAX TEMP:  64;

MCKINNEY       CLOUDY    64  51  62 E8        30.15F
6HR MIN TEMP:  47; 6HR MAX TEMP:  67;

GREENVILLE     CLOUDY    64  50  59 E7        30.17F
ROCKWALL       CLOUDY    64  52  64 SE6       30.15S
6HR MIN TEMP:  47; 6HR MAX TEMP:  69;

TERRELL        CLOUDY    65  52  62 SE9       30.16F
6HR MIN TEMP:  48; 6HR MAX TEMP:  66;

WAXAHACHIE     CLOUDY    60  52  73 E7        30.17S
6HR MIN TEMP:  46; 6HR MAX TEMP:  60;

CLEBURNE       CLOUDY    59  57  94 E9        30.17S
GRANBURY       CLOUDY    60  55  82 SE12      30.15F HAZE
6HR MIN TEMP:  55; 6HR MAX TEMP:  61;

$$

TXZ083>090-098>101-113>116-127>130-139>142-154-155-171900-
WESTERN NORTH TEXAS

CITY           SKY/WX    TMP DP  RH WIND       PRES   REMARKS
WICHITA FALLS  CLOUDY    66  52  59 E12       30.11F
6HR MIN TEMP:  44; 6HR MAX TEMP:  66;

WF-KICKAPOO    CLOUDY    67  50  55 E7        30.13F
6HR MIN TEMP:  50; 6HR MAX TEMP:  67;

VERNON         CLOUDY    61  47  61 NE14      30.13F
6HR MIN TEMP:  46; 6HR MAX TEMP:  77;

ABILENE        CLOUDY    63  51  65 SE12G20   30.10S
6HR MIN TEMP:  53; 6HR MAX TEMP:  64;

ABILENE-DYESS  CLOUDY    62  52  68 SE10      30.09F
6HR MIN TEMP:  53; 6HR MAX TEMP:  62;

BRECKENRIDGE   CLOUDY    66  51  58 S10G17    30.11R
6HR MIN TEMP:  55; 6HR MAX TEMP:  70;

GRAHAM         CLOUDY    66  52  60 E10G17    30.10S
6HR MIN TEMP:  51; 6HR MAX TEMP:  67;

MINERAL WELLS  CLOUDY    60  53  77 SE13      30.12F
6HR MIN TEMP:  53; 6HR MAX TEMP:  61;

STEPHENVILLE   CLOUDY    59  53  80 SE10      30.15S
6HR MIN TEMP:  53; 6HR MAX TEMP:  60;

COMANCHE       CLOUDY    56  56  99 SE10      30.13S FOG
6HR MIN TEMP:  53; 6HR MAX TEMP:  56; 6HR PCP:  0.03;

BROWNWOOD      CLOUDY    57  55  94 E9        30.12S FOG
COLEMAN        CLOUDY    59  55  85 SE9       30.11S FOG
6HR MIN TEMP:  55; 6HR MAX TEMP:  59;

BRADY          CLOUDY    57  57 100 E5        30.09R
$$

TXZ143>147-156>162-174-175-171900-
CENTRAL TEXAS

CITY           SKY/WX    TMP DP  RH WIND       PRES   REMARKS
WACO           CLOUDY    65  55  70 E14       30.13F
6HR MIN TEMP:  54; 6HR MAX TEMP:  65;

WACO-TSTC      CLOUDY    64  55  72 E6        30.14F
WACO-MCGREGOR  CLOUDY    64  54  68 SE12G17   30.15S
6HR MIN TEMP:  54; 6HR MAX TEMP:  64;

HILLSBORO      CLOUDY    60  52  75 E10       30.15S
6HR MIN TEMP:  49; 6HR MAX TEMP:  60;

CORSICANA      CLOUDY    67  54  63 E13G20    30.15F
6HR MIN TEMP:  52; 6HR MAX TEMP:  68;

MEXIA          PTSUNNY   66  55  68 E10       30.13F
6HR MIN TEMP:  52; 6HR MAX TEMP:  66;

HEARNE         CLOUDY    68  56  65 E8        30.14S
6HR MIN TEMP:  54; 6HR MAX TEMP:  70;

CAMERON        CLOUDY    67  56  67 SE10      30.12F
6HR MIN TEMP:  54; 6HR MAX TEMP:  67;

TEMPLE         CLOUDY    64  52  63 E13       30.14R
6HR MIN TEMP:  54; 6HR MAX TEMP:  64;

KILLEEN        CLOUDY    61  55  82 E9        30.12S
KILLEEN-SKYLRK PTSUNNY   61  52  72 E9        30.11F
6HR MIN TEMP:  55; 6HR MAX TEMP:  61;

FORT HOOD      CLOUDY    63  55  75 E9        30.12S
6HR MIN TEMP:  56; 6HR MAX TEMP:  63;

GATESVILLE     CLOUDY    61  55  82 CALM      30.15S
HAMILTON       CLOUDY    58  58 100 E10       30.14S FOG
6HR MIN TEMP:  54; 6HR MAX TEMP:  58; 6HR PCP:  0.01;

LAMPASAS       CLOUDY    58  56  92 E8        30.11S FOG
6HR MIN TEMP:  55; 6HR MAX TEMP:  58;

$$

TXZ095>097-106>112-122>126-135>138-148>153-164>167-171900-
EAST TEXAS

CITY           SKY/WX    TMP DP  RH WIND       PRES   REMARKS
PARIS          MOSUNNY   63  48  59 E8        30.19F
6HR MIN TEMP:  43; 6HR MAX TEMP:  64;

SULPHUR SPRNGS MOSUNNY   65  50  57 E8        30.19F
6HR MIN TEMP:  43; 6HR MAX TEMP:  65;

CLARKSVILLE    MOSUNNY   64  46  52 CALM      30.20F
6HR MIN TEMP:  43; 6HR MAX TEMP:  65;

MOUNT PLEASANT PTSUNNY   64  49  57 E6        30.20F
6HR MIN TEMP:  41; 6HR MAX TEMP:  64;

GILMER         CLOUDY    63  50  63 CALM      30.20F
MINEOLA        PTSUNNY   64  52  63 S5        30.19F
TYLER          PTSUNNY   65  48  54 E5        30.17F
6HR MIN TEMP:  52; 6HR MAX TEMP:  66;

LONGVIEW       CLOUDY    62  48  60 E9        30.18F
6HR MIN TEMP:  44; 6HR MAX TEMP:  62;

MARSHALL       CLOUDY    63  47  56 NE6       30.21F
6HR MIN TEMP:  43; 6HR MAX TEMP:  63;

ATHENS         CLOUDY    64  50  59 E7        30.15F
PALESTINE      CLOUDY    67  52  57 E10       30.18F
JACKSONVILLE   CLOUDY    60  49  67 E7        30.18F
HENDERSON      CLOUDY    64  47  54 E3        30.19F
6HR MIN TEMP:  47; 6HR MAX TEMP:  64;

NACOGDOCHES    CLOUDY    63  46  55 SE8       30.18F
6HR MIN TEMP:  50; 6HR MAX TEMP:  63;

$$

SUPPLEMENTAL OBSERVATIONS (CENTRAL)

CITY           SKY/WX    TMP DP  RH WIND       PRES   REMARKS
LAKE TEXOMA      N/A     57  48  72 E7          N/A
CADDO GRASSLND   N/A     66  46  48 SE5         N/A
PAT MAYSE LAKE   N/A     63  45  51 SE7         N/A
GREENVILLE       N/A     64  50  59 E9          N/A
CEDAR HILL       N/A     61  54  77 SE2         N/A
ATHENS           N/A     66  48  52 SE13        N/A
PALESTINE        N/A     66  54  63 E6          N/A
LAKE LIMESTONE   N/A     70  57  64 SE8         N/A
MCGREGOR         N/A     64  54  68 SE10        N/A
TEMPLE           N/A     64  55  72 SE8G16      N/A



USA.gov is the U.S. government's official web portal to all federal, state and local government web resources and services.